Current Version              Previous Version:    01  02  03  04  05  06  07  08  09  10  11  12  13  14  15  16  17  18  19  20  21  22  23  24  25  26  27  28  29  30  
   31  32  33  34  35  36  37  38  39  40  41  42  43  44  45  46  47  48  49  50  51  52  53  54  55  56  57  58  59  60  

[Printable]
423
ASUS44 KFWD 302303
RWRTX
NORTH TEXAS HOURLY WEATHER ROUNDUP
NATIONAL WEATHER SERVICE FORT WORTH TX
600 PM CDT WED JUL 30 2014

NOTE: "FAIR" INDICATES FEW OR NO CLOUDS BELOW 12,000 FEET WITH NO
SIGNIFICANT WEATHER AND/OR OBSTRUCTIONS TO VISIBILITY.

TXZ118-119-310000-
DALLAS/FORT WORTH METROPLEX

CITY           SKY/WX    TMP DP  RH WIND       PRES   REMARKS
DFW AIRPORT    PTSUNNY   90  70  51 SE14      29.91F HX  95
DALLAS LOVE    PTSUNNY   89  70  53 SE17      29.92F HX  94
FTW MEACHAM    MOSUNNY   93  70  46 SE14G22   29.90F HX  99
DAL-EXECUTIVE  PTSUNNY   91  67  44 SE15G23   29.92F HX  94
FTW-ALLIANCE   PTSUNNY   87  69  54 SE13G20   29.90F HX  91
FTW-NAS-JRB    PTSUNNY   93  67  42 SE16      29.94F HX  96
FTW-SPINKS     MOSUNNY   93  68  43 SE10      29.92F HX  97
ARLINGTON      PTSUNNY   91  68  46 SE13      29.91F HX  95
GRAND PRAIRIE  SUNNY     90  66  45 E12       29.93F HX  92
MESQUITE       SUNNY     88  70  55 SE10        N/A  HX  92
LANCASTER      CLOUDY    90  67  46 SE10G17   29.93F HX  92
$$

TXZ091>094-102>105-117-120-121-131>134-310000-
NORTH CENTRAL TEXAS

CITY           SKY/WX    TMP DP  RH WIND       PRES   REMARKS
SHRMAN/DENISON PTSUNNY   79  70  73 E16       29.96F
GAINESVILLE    PTSUNNY   80  72  75 E12       29.96S
BOWIE          PTSUNNY   84  73  70 SE7       29.93S HX  90
BRIDGEPORT     SUNNY     89  65  44 S12G20    29.92F HX  90
DECATUR        MOSUNNY   86  69  57 SE12G22   29.93F HX  90
DENTON         MOSUNNY   86  72  62 SE14      29.92F HX  92
MCKINNEY       PTSUNNY   84  71  65 SE13      29.93F
GREENVILLE     CLOUDY    82  70  65 E8        29.96F
ROCKWALL       PTSUNNY   86  71  60 SE12G18   29.93F HX  91
TERRELL        CLOUDY    88  70  55 SE14      29.94F HX  93
WAXAHACHIE     CLOUDY    90  65  43 SE8G16    29.93F HX  91
CLEBURNE       PTSUNNY   91  72  52 SE15G21   29.93F HX  98
GRANBURY       MOSUNNY   92  69  46 SE13      29.90F HX  97
$$

TXZ083>090-098>101-113>116-127>130-139>142-154-155-310000-
WESTERN NORTH TEXAS

CITY           SKY/WX    TMP DP  RH WIND       PRES   REMARKS
WICHITA FALLS  LGT RAIN  85  70  60 E5        29.90F
WF-KICKAPOO    PTSUNNY   87  66  49 E8        29.91S
VERNON         PTSUNNY   85  71  61 NE7       29.94F HX  90
ABILENE        SUNNY     97  59  28 S14       29.89F HX  96
ABILENE-DYESS  SUNNY     97  63  32 SE14      29.87F HX  98
BRECKENRIDGE   SUNNY     99  54  22 S16G22    29.87F HX  97
GRAHAM         SUNNY     97  56  25 S10G16    29.86F HX  95
MINERAL WELLS  SUNNY     92  68  45 SE18G25   29.88F HX  96
STEPHENVILLE   MOSUNNY   95  58  28 S15G21    29.94F HX  94
COMANCHE       SUNNY     97  54  23 S15       29.90F HX  95
BROWNWOOD      SUNNY     99  50  19 SE14      29.90F HX  95
COLEMAN        SUNNY    100  50  18 S12       29.90F HX  97
BRADY          SUNNY     99  54  22 SE14      29.92F HX  96
$$

TXZ143>147-156>162-174-175-310000-
CENTRAL TEXAS

CITY           SKY/WX    TMP DP  RH WIND       PRES   REMARKS
WACO           PTSUNNY   92  68  45 SE14      29.91F HX  96
WACO-MCGREGOR  PTSUNNY   93  66  40 S10       29.92F HX  96
HILLSBORO      PTSUNNY   92  67  42 S13G20    29.92F HX  95
CORSICANA      MOSUNNY   90  69  50 SE13      29.94F HX  94
MEXIA          MOSUNNY   89  68  49 SE9G16    29.94F HX  92
HEARNE         SUNNY    N/A N/A N/A SE7       29.93F
CAMERON        SUNNY     94  69  43 SE9       29.92F HX  99
TEMPLE         MOSUNNY   91  66  43 SE17      29.93F HX  94
KILLEEN        PTSUNNY   91  63  38 SE14      29.92F HX  92
KILLEEN-SKYLRK MOSUNNY   93  63  36 S14       29.92F HX  94
FORT HOOD      MOSUNNY   95  63  34 SE10      29.92F HX  96
GATESVILLE     MOSUNNY   95  64  36 S12       29.94F HX  97
HAMILTON       MOSUNNY   93  57  30 S16G22    29.93F HX  91
LAMPASAS       MOSUNNY   96  66  37 SE12      29.93S HX  99
$$

TXZ095>097-106>112-122>126-135>138-148>153-164>167-310000-
EAST TEXAS

CITY           SKY/WX    TMP DP  RH WIND       PRES   REMARKS
PARIS          CLOUDY    75  66  73 E13G18    30.01F
SULPHUR SPRNGS CLOUDY    79  70  75 E9        30.01S
CLARKSVILLE    CLOUDY    76  69  80 E9        30.01F
MOUNT PLEASANT CLOUDY    76  69  79 E5        30.03S
GILMER         PTSUNNY   82  72  69 E7        30.00F
MINEOLA        PTSUNNY   84  72  65 SE6       29.99F
TYLER          MOSUNNY   88  68  51 SE14      29.97F HX  91
LONGVIEW       MOSUNNY   84  70  62 E8        29.99F
MARSHALL       PTSUNNY   82  67  60 E3        30.03F
ATHENS         MOSUNNY   86  70  58 SE8       29.95F HX  90
JACKSONVILLE   SUNNY     87  70  56 E6        30.01F HX  91
HENDERSON      MOSUNNY   87  69  55 E6        30.00F HX  91
NACOGDOCHES    SUNNY     88  68  51 E7        29.99F HX  91
LUFKIN         SUNNY     91  70  49 E10       29.98F HX  96
$$

SUPPLEMENTAL OBSERVATIONS (CENTRAL)

CITY           SKY/WX    TMP DP  RH WIND       PRES   REMARKS
$$

SUPPLEMENTAL OBSERVATIONS (WEST)

CITY           SKY/WX    TMP DP  RH WIND       PRES   REMARKS
$$

SUPPLEMENTAL OBSERVATIONS (EAST)

CITY           SKY/WX    TMP DP  RH WIND       PRES   REMARKS
$$

SUPPLEMENTAL OBSERVATIONS ARE A COLLECTION OF AUTOMATED INSTRUMENTS
THAT ARE MAINTAINED BY A VARIETY OF FEDERAL AND STATE AGENCIES.
CERTAIN ELEMENTS...SUCH AS HUMIDITY VALUES AND SUSTAINED WIND
SPEEDS...MAY BE APPROXIMATED.